| time (UTC) | temp F | wind direction | speed MPH | gust MPH | rain 1hr in | rain 24hr in | rain mn in | humidity % | barometer mb |
| 20260506221551 | 61 | 253 | 9.0 | 12.0 | 0.00 | 0.00 | 0.00 | 77 | 1016.4 |
| 20260506220053 | 61 | 254 | 9.0 | 12.0 | 0.00 | 0.00 | 0.00 | 77 | 1016.3 |
| 20260506214549 | 62 | 247 | 8.0 | 11.0 | 0.00 | 0.00 | 0.00 | 76 | 1016.3 |
| 20260506213045 | 62 | 252 | 7.0 | 11.0 | 0.00 | 0.00 | 0.00 | 76 | 1016.4 |
| 20260506211559 | 61 | 243 | 7.0 | 10.0 | 0.00 | 0.00 | 0.00 | 75 | 1016.5 |
| 20260506210054 | 61 | 251 | 5.0 | 9.0 | 0.00 | 0.00 | 0.00 | 75 | 1016.4 |
| 20260506204551 | 61 | 244 | 4.0 | 7.0 | 0.00 | 0.00 | 0.00 | 74 | 1016.5 |
| 20260506203046 | 61 | 246 | 3.0 | 5.0 | 0.00 | 0.00 | 0.00 | 72 | 1016.6 |
| 20260506201556 | 60 | 250 | 5.0 | 9.0 | 0.00 | 0.00 | 0.00 | 69 | 1016.5 |
| 20260506200040 | 59 | 246 | 4.0 | 7.0 | 0.00 | 0.00 | 0.00 | 65 | 1016.4 |
| 20260506194540 | 61 | 250 | 5.0 | 9.0 | 0.00 | 0.00 | 0.00 | 64 | 1016.3 |
| 20260506193057 | 64 | 252 | 5.0 | 8.0 | 0.00 | 0.00 | 0.00 | 61 | 1016.2 |
| 20260506191549 | 64 | 249 | 4.0 | 7.0 | 0.00 | 0.00 | 0.00 | 53 | 1016.1 |
| 20260506190044 | 64 | 249 | 3.0 | 4.0 | 0.00 | 0.00 | 0.00 | 43 | 1015.9 |
| 20260506184550 | 65 | 249 | 3.0 | 5.0 | 0.00 | 0.00 | 0.00 | 39 | 1015.8 |
| 20260506183041 | 65 | 249 | 2.0 | 4.0 | 0.00 | 0.00 | 0.00 | 39 | 1015.4 |
| 20260506181558 | 65 | 249 | 2.0 | 4.0 | 0.00 | 0.00 | 0.00 | 39 | 1015.4 |
| 20260506180053 | 65 | 249 | 3.0 | 5.0 | 0.00 | 0.00 | 0.00 | 40 | 1015.2 |
| 20260506174553 | 65 | 249 | 2.0 | 4.0 | 0.00 | 0.00 | 0.00 | 39 | 1015.2 |
| 20260506173122 | 65 | 249 | 1.0 | 5.0 | 0.00 | 0.00 | 0.00 | 40 | 1015.1 |
| 20260506171543 | 65 | 249 | 3.0 | 4.0 | 0.00 | 0.00 | 0.00 | 40 | 1014.8 |
| 20260506170041 | 66 | 249 | 2.0 | 4.0 | 0.00 | 0.00 | 0.00 | 41 | 1015.0 |
| 20260506164606 | 67 | 250 | 2.0 | 4.0 | 0.00 | 0.00 | 0.00 | 39 | 1015.0 |
| 20260506163104 | 67 | 250 | 2.0 | 6.0 | 0.00 | 0.00 | 0.00 | 38 | 1015.1 |
| 20260506161609 | 68 | 258 | 2.0 | 5.0 | 0.00 | 0.00 | 0.00 | 43 | 1015.1 |
| 20260506160046 | 68 | 229 | 3.0 | 6.0 | 0.00 | 0.00 | 0.00 | 44 | 1015.1 |
| 20260506154550 | 68 | 217 | 3.0 | 6.0 | 0.00 | 0.00 | 0.00 | 44 | 1015.2 |
| 20260506153047 | 68 | 219 | 4.0 | 6.0 | 0.00 | 0.00 | 0.00 | 44 | 1015.3 |
| 20260506151557 | 68 | 211 | 3.0 | 6.0 | 0.00 | 0.00 | 0.00 | 44 | 1015.3 |
| 20260506150051 | 67 | 244 | 3.0 | 7.0 | 0.00 | 0.00 | 0.00 | 48 | 1015.4 |
| 20260506144554 | 66 | 223 | 3.0 | 6.0 | 0.00 | 0.00 | 0.00 | 52 | 1015.6 |
| 20260506143050 | 67 | 272 | 3.0 | 8.0 | 0.00 | 0.00 | 0.00 | 49 | 1015.6 |
| 20260506141542 | 66 | 244 | 3.0 | 7.0 | 0.00 | 0.00 | 0.00 | 51 | 1015.7 |
| 20260506140042 | 67 | 215 | 3.0 | 7.0 | 0.00 | 0.00 | 0.00 | 54 | 1015.9 |
| 20260506134540 | 66 | 221 | 3.0 | 7.0 | 0.00 | 0.00 | 0.00 | 58 | 1015.8 |
| 20260506133055 | 66 | 242 | 3.0 | 7.0 | 0.00 | 0.00 | 0.00 | 57 | 1015.8 |
| 20260506131558 | 66 | 221 | 4.0 | 9.0 | 0.00 | 0.00 | 0.00 | 60 | 1015.7 |
| 20260506130100 | 66 | 221 | 2.0 | 6.0 | 0.00 | 0.00 | 0.00 | 58 | 1015.6 |
| 20260506124553 | 66 | 225 | 1.0 | 5.0 | 0.00 | 0.00 | 0.00 | 55 | 1015.7 |
| 20260506123044 | 65 | 189 | 2.0 | 6.0 | 0.00 | 0.00 | 0.00 | 60 | 1015.9 |
| 20260506121556 | 65 | 184 | 2.0 | 6.0 | 0.00 | 0.00 | 0.00 | 62 | 1016.1 |
| 20260506120052 | 65 | 193 | 2.0 | 6.0 | 0.00 | 0.00 | 0.00 | 61 | 1016.3 |
| 20260506114554 | 64 | 182 | 3.0 | 5.0 | 0.00 | 0.00 | 0.00 | 63 | 1016.3 |
| 20260506113054 | 65 | 138 | 1.0 | 8.0 | 0.00 | 0.00 | 0.00 | 62 | 1016.3 |
| 20260506111542 | 65 | 149 | 4.0 | 7.0 | 0.00 | 0.00 | 0.00 | 60 | 1016.4 |
| 20260506110040 | 65 | 173 | 4.0 | 9.0 | 0.00 | 0.00 | 0.00 | 61 | 1016.4 |
| 20260506104559 | 66 | 136 | 4.0 | 8.0 | 0.00 | 0.00 | 0.00 | 54 | 1016.3 |
| 20260506103058 | 65 | 123 | 5.0 | 9.0 | 0.00 | 0.00 | 0.00 | 53 | 1016.2 |
| 20260506101555 | 66 | 129 | 7.0 | 10.0 | 0.00 | 0.00 | 0.00 | 60 | 1016.3 |
| 20260506100101 | 66 | 107 | 7.0 | 10.0 | 0.00 | 0.00 | 0.00 | 54 | 1016.3 |
| 20260506094541 | 66 | 101 | 7.0 | 11.0 | 0.00 | 0.00 | 0.00 | 54 | 1016.3 |
| 20260506093056 | 66 | 121 | 6.0 | 9.0 | 0.00 | 0.00 | 0.00 | 53 | 1016.3 |
| 20260506091559 | 66 | 89 | 5.0 | 10.0 | 0.00 | 0.00 | 0.00 | 54 | 1016.3 |
| 20260506090047 | 65 | 109 | 7.0 | 12.0 | 0.00 | 0.00 | 0.00 | 59 | 1016.3 |
| 20260506084607 | 65 | 107 | 7.0 | 10.0 | 0.00 | 0.00 | 0.00 | 60 | 1016.3 |
| 20260506083046 | 66 | 106 | 6.0 | 10.0 | 0.00 | 0.00 | 0.00 | 55 | 1016.3 |
| 20260506081601 | 65 | 108 | 7.0 | 10.0 | 0.00 | 0.00 | 0.00 | 55 | 1016.3 |
| 20260506073052 | 65 | 94 | 6.0 | 10.0 | 0.00 | 0.00 | 0.00 | 53 | 1015.9 |
| 20260506071546 | 65 | 109 | 5.0 | 8.0 | 0.00 | 0.00 | 0.00 | 55 | 1015.7 |
| 20260506061549 | 63 | 99 | 5.0 | 9.0 | 0.00 | 0.00 | 0.00 | 60 | 1015.7 |
| 20260506044655 | 63 | 49 | 2.0 | 5.0 | 0.00 | 0.00 | 0.00 | 47 | 1014.9 |
| 20260506043057 | 63 | 69 | 3.0 | 6.0 | 0.00 | 0.00 | 0.00 | 47 | 1014.9 |
| 20260506041558 | 62 | 69 | 2.0 | 5.0 | 0.00 | 0.00 | 0.00 | 47 | 1014.7 |
| 20260506040014 | 61 | 81 | 3.0 | 5.0 | 0.00 | 0.00 | 0.00 | 47 | 1014.7 |
| 20260506034614 | 61 | 65 | 2.0 | 4.0 | 0.00 | 0.00 | 0.00 | 48 | 1014.6 |
| 20260506033103 | 61 | 78 | 4.0 | 6.0 | 0.00 | 0.00 | 0.00 | 47 | 1014.5 |
| 20260506031549 | 60 | 65 | 1.0 | 4.0 | 0.00 | 0.00 | 0.00 | 50 | 1014.5 |
| 20260506030041 | 60 | 251 | 0.0 | 0.0 | 0.00 | 0.00 | 0.00 | 55 | 1014.5 |
| 20260506024546 | 59 | 251 | 0.0 | 0.0 | 0.00 | 0.00 | 0.00 | 55 | 1014.3 |
| 20260506023101 | 55 | 251 | 0.0 | 0.0 | 0.00 | 0.00 | 0.00 | 64 | 1014.3 |
| 20260506021553 | 57 | 251 | 0.0 | 3.0 | 0.00 | 0.00 | 0.00 | 75 | 1014.4 |
| 20260506020053 | 58 | 248 | 5.0 | 7.0 | 0.00 | 0.00 | 0.00 | 77 | 1014.3 |
| 20260506014548 | 58 | 242 | 5.0 | 7.0 | 0.00 | 0.00 | 0.00 | 77 | 1014.4 |
| 20260506013043 | 59 | 250 | 4.0 | 11.0 | 0.00 | 0.00 | 0.00 | 76 | 1014.4 |
| 20260506011541 | 58 | 247 | 7.0 | 11.0 | 0.00 | 0.00 | 0.00 | 76 | 1014.2 |
| 20260506010040 | 59 | 244 | 6.0 | 8.0 | 0.00 | 0.00 | 0.00 | 75 | 1014.3 |
| 20260506004625 | 58 | 251 | 5.0 | 7.0 | 0.00 | 0.00 | 0.00 | 75 | 1014.2 |
| 20260506003110 | 59 | 242 | 4.0 | 5.0 | 0.00 | 0.00 | 0.00 | 74 | 1014.4 |
| 20260506001555 | 58 | 244 | 3.0 | 7.0 | 0.00 | 0.00 | 0.00 | 72 | 1014.3 |
| 20260506000046 | 57 | 240 | 4.0 | 7.0 | 0.00 | 0.00 | 0.00 | 70 | 1014.4 |
| 20260505234604 | 56 | 247 | 3.0 | 5.0 | 0.00 | 0.00 | 0.00 | 67 | 1014.4 |
| 20260505233041 | 57 | 249 | 4.0 | 5.0 | 0.00 | 0.00 | 0.00 | 64 | 1014.5 |
| 20260505231556 | 60 | 227 | 3.0 | 4.0 | 0.00 | 0.00 | 0.00 | 62 | 1014.4 |
| 20260505230047 | 60 | 298 | 3.0 | 8.0 | 0.00 | 0.00 | 0.00 | 53 | 1014.6 |
| 20260505224549 | 60 | 273 | 4.0 | 8.0 | 0.00 | 0.00 | 0.00 | 51 | 1014.8 |
| 20260505223045 | 61 | 263 | 4.0 | 11.0 | 0.00 | 0.00 | 0.00 | 48 | 1014.9 |